Flag for Spain

Past Weather in Valverde, Canary Islands, Spain — Yesterday and Last 2 Weeks

Now
75 °F

Passing clouds.


Feels Like: 77 °F
Forecast: 74 / 71 °F
Wind: 20 mph from North

Location: Hierro / Aeropuerto

Current Time: Jul 16, 2020 at 6:42:23 pm

Latest Report: Jul 16, 2020 at 6:00 pm


Visibility: N/A

Pressure: 29.98 "Hg (28.07 "Hg at 571m altitude)

Humidity: 69%

Dew Point: 64 °F

Location of ValverdeLocation

Past Weather in Valverde — Graph

°F

Valverde Temperature Yesterday

Maximum temperature yesterday: 82 °F (at 2:30 pm)
Minimum temperature yesterday: 70 °F (at 2:30 am)
Average temperature yesterday: 73 °F

High & Low Weather Summary for the Past Weeks

 TemperatureHumidityPressure
High82 °F (Jul 15, 2:30 pm)88% (Jul 2, 5:00 am)30.15 "Hg (Jul 2, 5:00 am)
Low68 °F (Jul 14, 6:00 am)54% (Jul 5, 2:30 pm)29.89 "Hg (Jul 7, 3:00 am)
Average73 °F75%30.01 "Hg
* Reported Jul 1 5:00 pm — Jul 16 5:00 pm, Valverde. Weather by CustomWeather, © 2020

Note: Actual official high and low records may vary slightly from our data, if they occured in-between our weather recording intervals... More about our weather records

Valverde Weather History for the Previous 24 Hours

Scroll right to see more
 ConditionsComfort  
Time TempWeatherWind HumidityBarometerVisibility
5:00 pm
Thu, Jul 16
75 °FPassing clouds.20 mph69%29.98 "HgN/A
4:30 pm75 °FPassing clouds.21 mph69%29.98 "HgN/A
4:00 pm75 °FPassing clouds.20 mph69%29.98 "HgN/A
3:30 pm75 °FPassing clouds.20 mph69%29.98 "HgN/A
3:00 pm77 °FPassing clouds.15 mph65%29.98 "HgN/A
2:30 pm75 °FPassing clouds.16 mph69%29.98 "HgN/A
2:00 pm75 °FPassing clouds.14 mph69%29.98 "HgN/A
1:30 pm75 °FPassing clouds.16 mph69%29.98 "HgN/A
1:00 pm75 °FPassing clouds.15 mph65%29.98 "HgN/A
12:30 pm77 °FPassing clouds.14 mph65%29.98 "HgN/A
12:00 pm75 °FPassing clouds.17 mph65%29.98 "HgN/A
11:30 am75 °FPassing clouds.20 mph65%29.98 "HgN/A
11:00 am73 °FScattered clouds.22 mph69%29.98 "HgN/A
10:30 am73 °FScattered clouds.22 mph69%29.98 "HgN/A
10:00 am73 °FScattered clouds.21 mph69%29.98 "HgN/A
9:30 am72 °FScattered clouds.17 mph73%29.98 "HgN/A
9:00 am72 °FScattered clouds.18 mph78%29.95 "HgN/A
8:30 am70 °FScattered clouds.18 mph83%29.95 "HgN/A
8:00 am70 °FScattered clouds.16 mph83%29.92 "HgN/A
7:30 am70 °FScattered clouds.16 mph78%29.92 "HgN/A
7:00 am70 °FPassing clouds.17 mph78%29.92 "HgN/A
6:30 am70 °FPassing clouds.16 mph78%29.92 "HgN/A
6:00 am70 °FPassing clouds.14 mph78%29.92 "HgN/A
5:30 am70 °FPassing clouds.15 mph78%29.92 "HgN/A
5:00 am70 °FPassing clouds.14 mph78%29.92 "HgN/A
4:30 am70 °FPassing clouds.14 mph78%29.92 "HgN/A
4:00 am70 °FPassing clouds.17 mph78%29.92 "HgN/A
3:30 am70 °FOvercast.20 mph78%29.92 "HgN/A
3:00 am70 °FPassing clouds.20 mph78%29.92 "HgN/A
2:30 am70 °FPassing clouds.17 mph83%29.92 "HgN/A
2:00 am72 °FPassing clouds.21 mph78%29.92 "HgN/A
1:30 am70 °FPassing clouds.21 mph78%29.92 "HgN/A
1:00 am72 °FPassing clouds.23 mph73%29.92 "HgN/A
12:30 am72 °FPassing clouds.23 mph73%29.95 "HgN/A
12:00 am72 °FPassing clouds.23 mph73%29.95 "HgN/A
11:30 pm
Wed, Jul 15
72 °FPassing clouds.20 mph78%29.92 "HgN/A
11:00 pm72 °FPassing clouds.21 mph73%29.92 "HgN/A
10:30 pm72 °FPassing clouds.20 mph73%29.92 "HgN/A
10:00 pm72 °FPassing clouds.18 mph73%29.92 "HgN/A
9:30 pm72 °FPassing clouds.18 mph78%29.92 "HgN/A
9:00 pm72 °FPartly sunny.23 mph73%29.92 "HgN/A
8:30 pm72 °FPartly sunny.24 mph78%29.92 "HgN/A
8:00 pm73 °FPassing clouds.25 mph69%29.89 "HgN/A
7:00 pm73 °FScattered clouds.22 mph74%29.89 "HgN/A
6:30 pm75 °FScattered clouds.24 mph69%29.89 "HgN/A
6:00 pm75 °FScattered clouds.23 mph69%29.89 "HgN/A
Weather by CustomWeather, © 2020

See weather overview